[Iaude] MPEC V21: 2016 VF [a=1.56,e=0.37,i=9.9,H=26.6]

mpec at si.edu mpec at si.edu
Thu Nov 3 20:29:34 EDT 2016


M.P.E.C. 2016-V21                                Issued 2016 Nov. 4, 00:25 UT
 
     The Minor Planet Electronic Circulars contain information on unusual
         minor planets and routine data on comets.  They are published
    on behalf of Division F of the International Astronomical Union by the
          Minor Planet Center, Smithsonian Astrophysical Observatory,
                          Cambridge, MA 02138, U.S.A.

             Prepared using the Tamkin Foundation Computer Network

                              MPC at CFA.HARVARD.EDU
            URL http://www.minorplanetcenter.net/    ISSN 1523-6714


                                    2016 VF
 
Observations:
     K16V00F  C2016 10 30.54632 02 22 57.139+12 56 55.44         20.4 wLEV021F51
     K16V00F  C2016 10 30.55970 02 22 58.076+13 00 14.13         21.1 wLEV021F51
     K16V00F  C2016 10 30.56631 02 22 58.561+13 01 52.35         20.1 wLEV021F51
     K16V00F  C2016 10 30.57302 02 22 59.070+13 03 32.40         21.0 wLEV021F51
     K16V00F  C2016 10 31.33377 02 24 53.254+16 24 04.22         20.3 wLEV021F51
     K16V00F  C2016 10 31.34700 02 24 54.201+16 27 47.06         20.6 wLEV021F51
     K16V00F  C2016 10 31.35362 02 24 54.658+16 29 38.59         20.0 wLEV021F51
     K16V00F* C2016 11 02.15561 02 29 58.16 +25 51 44.1          19.7 VqEV021G96
     K16V00F  C2016 11 02.16052 02 29 58.86 +25 53 27.7                qEV021G96
     K16V00F  C2016 11 02.16538 02 29 59.58 +25 55 12.2          19.4 VqEV021G96
     K16V00F  C2016 11 02.17024 02 30 00.30 +25 56 54.6          20.1 VqEV021G96
     K16V00F HC2016 11 02.29045 02 30 15.62 +26 39 28.6                oEV021691
     K16V00F HC2016 11 02.29601 02 30 16.29 +26 41 26.6                oEV021691
     K16V00F HC2016 11 02.30149 02 30 16.93 +26 43 20.6                oEV021691
     K16V00F  C2016 11 02.33729 02 30 21.07 +26 56 01.8          20.4 VqEV021G96
     K16V00F  C2016 11 02.33749 02 30 21.10 +26 56 05.8          20.1 VqEV021G96
     K16V00F  C2016 11 02.33769 02 30 21.11 +26 56 09.9          20.2 VqEV021G96
     K16V00F  C2016 11 02.33789 02 30 21.14 +26 56 14.2          20.4 VqEV021G96
     K16V00F KC2016 11 03.01289 02 32 53.33 +31 03 34.8                qEV021J95
     K16V00F KC2016 11 03.01717 02 32 54.03 +31 05 11.5                qEV021J95
     K16V00F KC2016 11 03.02109 02 32 54.70 +31 06 41.4          19.7 RqEV021J95
     K16V00F  C2016 11 03.36201 02 34 15.80 +33 19 55.5          19.4 RoEV021926
     K16V00F  C2016 11 03.36500 02 34 16.31 +33 21 04.9          20.0 RoEV021926
     K16V00F  C2016 11 03.36799 02 34 16.82 +33 22 14.6          19.2 RoEV021926
 
Observer details:
691 Steward Observatory, Kitt Peak.  Observer M. T. Read.  0.9-m f/3 reflector
    + CCD.
926 Tenagra II Observatory.  Observers M. Schwartz, P. R. Holvorcem.  Measurer
    M. Schwartz.  0.81-m f/7 Ritchey-Chretien + CCD.
F51 Pan-STARRS 1, Haleakala.  Observers B. Gibson, T. Goggia, S. Kahale,
    A. Schultz, M. Willman.  Measurers K. Chambers, S. Chastel, L. Denneau,
    H. Flewelling, M. Huber, E. Lilly, E. Magnier, R. Wainscoat, C. Waters,
    R. Weryk.  1.8-m Ritchey-Chretien + CCD.
G96 Mt. Lemmon Survey.  Observer A. D. Grauer.  Measurers E. J. Christensen,
    D. C. Fuls, A. R. Gibbs, A. D. Grauer, J. A. Johnson, R. A. Kowalski,
    S. M. Larson, G. J. Leonard, R. G. Matheny, R. L. Seaman, F. C. Shelly.
    1.5-m reflector + 10K CCD.
J95 Great Shefford.  Observer P. Birtwhistle.  0.40-m f/6.0 Schmidt-Cassegrain
    + CCD.
 
Orbital elements:
2016 VF                                                  Earth MOID = 0.0346 AU
Epoch 2016 July 31.0 TT = JDT 2457600.5                 MPC
M 296.30403              (2000.0)            P               Q
n   0.50493899     Peri.   39.30448     +0.23113551     -0.96724642
a   1.5618648      Node    37.66992     +0.84377783     +0.14559114
e   0.3747582      Incl.    9.88707     +0.48437108     +0.20793647
P   1.95           H   26.6           G   0.15           U   6
Residuals in seconds of arc
161030 F51  0.1-  1.1-    161102 G96  0.4-  0.6-    161102 G96  0.1-  0.1-
161030 F51  0.0   0.2-    161102 G96  0.0   0.6+    161102 G96  0.0   0.1-
161030 F51  0.0   0.2+    161102 G96  0.4+  0.3-    161103 J95  0.5+  0.3+
161030 F51  0.1+  1.0+    161102 691 (0.1-  2.1-)   161103 J95  0.0   0.5-
161031 F51  0.0   0.4-    161102 691 (0.0   2.1-)   161103 J95  0.1-  0.0
161031 F51  0.0   0.1+    161102 691 (0.1-  4.3-)   161103 926  0.4-  0.5+
161031 F51  0.1-  0.4+    161102 G96  0.0   0.2+    161103 926  0.5-  0.2+
161102 G96  0.2-  0.1+    161102 G96  0.1+  0.0     161103 926  0.5-  0.1+

Ephemeris:
2016 VF                  a,e,i = 1.56, 0.37, 10                  q = 0.9765
Date    TT    R. A. (2000) Decl.     Delta      r     Elong.  Phase     V
2016 10 05    02 03 28.6 -18 01 58   0.1734  1.1534   150.0    25.7    24.3
...
2016 10 20    02 11 34.3 -10 23 56   0.09403 1.0833   157.8    20.3    22.7
...
2016 10 28    02 18 52.5 +04 02 57   0.05831 1.0511   170.7     8.8    21.1
...
2016 11 03    02 32 51.4 +30 59 40   0.03952 1.0301   164.1    15.3    20.5
2016 11 04    02 37 22.3 +37 37 11   0.03780 1.0268   157.7    21.5    20.6
2016 11 05    02 43 15.2 +44 43 58   0.03665 1.0237   150.9    28.1    20.7
...
2016 11 11    06 29 38.1 +82 28 53   0.04246 1.0067   112.0    65.7    22.1
...
2016 11 19    13 15 33.4 +65 22 29   0.06965 0.9896    89.1    86.9    23.8
...
2016 12 04    13 43 55.2 +49 44 12   0.1301  0.9762    82.1    90.3    25.3

A. U. Tomatic                (C) Copyright 2016 MPC           M.P.E.C. 2016-V21




More information about the Iaude mailing list